Location: La Pernelle
(49.6188°N, 1.2999°W)
Time: 03:38:24
(UTC+00:00)

NOSS 3-2 (A) - Pass Details

Date: 16 October 2021
Orbit: 771 x 1437 km, 63.4° (Epoch: 21 November)

Event Time Altitude Azimuth Distance (km) Brightness Sun altitude
Rises 22:16:06 0° 316° (NW) 3,851 7.4 -45.1°
Reaches altitude 10° 22:18:37 10° 319° (NW) 2,984 6.6 -45.3°
Enters shadow 22:21:44 29° 328° (NNW) 2,008 5.4 -45.6°
